Location: Eastchurch
(51.4000°N, 0.8667°E)
Time: 23:52:53
(UTC+00:00)

Cosmos 968 Rocket - Pass Details

Date: 19 January 2026
Orbit: 737 x 764 km, 74.0° (Epoch: 18 February)

Event Time Altitude Azimuth Distance (km) Brightness Sun altitude
Rises 17:08:32 0° 333° (NNW) 3,209 6.8 -7.0°
Reaches altitude 10° 17:10:56 10° 330° (NNW) 2,276 6.1 -7.3°
Maximum altitude 17:16:00 62° 251° (WSW) 837 4.1 -8.1°
Drops below altitude 10° 17:21:01 10° 171° (S) 2,245 6.1 -8.8°
Sets 17:23:22 0° 168° (SSE) 3,161 6.8 -9.1°
